sat.trackr.live / text

‹ back to catalog

STARLINK-6248

NORAD 57082 · 2023-088AL

PAYLOAD ACTIVE UNKNOWN

§ Identity

Operator
Country
US
Launch date
2023-06-22
Launch site
AFWTR
Launch vehicle
Mass (kg)
RCS (m²)

Purposes: comms

External: N2YO · Heavens-Above · Gunter

§ Orbital elements

Epoch: 2026-05-25T01:22:35.154048Z

Period
94.27 min
Inclination
43.0058°
Eccentricity
0.0001551
Mean motion
15.27591449 rev/d
Perigee alt
482.0 km
Apogee alt
484.1 km
Semi-major
6,861.2 km
B*
9.4029e-5
RAAN
24.5131°
Arg perigee
285.9357°
Mean anomaly
74.1323°
Rev number
16,218

§ Raw data

STARLINK-62481 57082U 23088AL  26145.05735132  .00002327  00000+0  94029-4 0  99982 57082  43.0058  24.5131 0001551 285.9357  74.1323 15.27591449162186

JSON: /api/v1/satellites/57082 · /tle

For live sub-satellite position, see the globe view (requires WebGL).

§ Visibility from observer

Set your observer location to see the next 7 days of passes ≥ 10°. The values pass through the URL so the page stays shareable.

No JS? Fill the form by hand. The geolocation button needs JavaScript.